This demonstration page uses our WeatherBlox Daily Observations layout. Learn more.

Left ArrowRight Arrow

44.8408, -93.29828

Hourly Observations for November 24, 2016

Temp ( °F °C ) Dew Point ( °F °C ) Humidity (%) Winds ( mph kmh ) Pressure ( in mb ) Visibility ( mi km ) Precip ( " mm )
12:03 am 00:03 Cloudy 34 1 30 -1 87 87 NW 5 7 30.12 1020 10 16 0.00 0.00
12:53 am 00:53 Cloudy 34 1.1 31 -0.6 89 89 NW 6 9 30.12 1020 10 16 0.00 0.00
1:31 am 01:31 Cloudy 34 1.1 31 -0.6 89 89 WNW 6 9 30.15 1021 10 16 0.00 0.00
1:53 am 01:53 Cloudy 34 1.1 31 -0.6 89 89 WNW 5 7 30.14 1021 10 16 0.00 0.00
2:42 am 02:42 Cloudy 34 1 30 -1 87 87 WNW 3 6 30.15 1021 10 16 0.00 0.00
2:53 am 02:53 Cloudy 35 1.7 31 -0.6 85 85 W 5 7 30.15 1021 10 16 0.00 0.00
3:53 am 03:53 Cloudy 34 1.1 31 -0.6 89 89 NW 3 6 30.15 1021 8 13 0.00 0.00
4:48 am 04:48 Cloudy 34 1 30 -1 87 87 Calm 30.15 1021 7 11 0.00 0.00
4:53 am 04:53 Cloudy 34 1.1 31 -0.6 89 89 Calm 30.16 1021 7 11 0.00 0.00
5:16 am 05:16 Cloudy 34 1 30 -1 87 87 Calm 30.15 1021 7 11 0.00 0.00
5:53 am 05:53 Cloudy 35 1.7 31 -0.6 85 85 Calm 30.16 1022 8 13 0.00 0.00
6:34 am 06:34 Cloudy 35 1.7 31 -0.6 85 85 Calm 30.18 1022 7 11 0.00 0.00
6:53 am 06:53 Cloudy 35 1.7 32 0 89 89 Calm 30.18 1022 7 11 0.00 0.00
7:53 am 07:53 Cloudy with Mist and Fog 34 1.1 32 0 92 92 SSE 3 6 30.19 1022 5 8 0.00 0.00
8:53 am 08:53 Cloudy with Mist and Fog 34 1.1 31 -0.6 89 89 ESE 3 6 30.19 1022 5 8 0.00 0.00
9:42 am 09:42 Cloudy 36 2 32 0 87 87 Calm 30.21 1023 7 11 0.00 0.00
9:53 am 09:53 Cloudy with Mist and Fog 34 1.1 32 0 92 92 Calm 30.21 1023 4 6 0.00 0.00
10:11 am 10:11 Cloudy with Mist and Fog 35 1.7 32 0 89 89 Calm 30.21 1023 3 4 0.00 0.00
10:44 am 10:44 Cloudy with Mist and Fog 36 2 32 0 87 87 Calm 30.21 1023 3 4 0.00 0.00
10:53 am 10:53 Cloudy with Mist and Fog 35 1.7 32 0 89 89 Calm 30.22 1023 3 4 0.00 0.00
11:15 am 11:15 Cloudy with Mist and Fog 35 1.7 32 0 89 89 Calm 30.21 1023 3 5 0.00 0.00
11:53 am 11:53 Cloudy with Mist and Fog 36 2.2 32 0 86 86 W 5 7 30.22 1023 4 6 0.00 0.00
12:53 pm 12:53 Cloudy with Mist and Fog 36 2.2 32 0 86 86 W 5 7 30.21 1023 6 10 0.00 0.00
1:06 pm 13:06 Cloudy with Mist and Fog 36 2 32 0 87 87 WSW 3 6 30.21 1023 6 10 0.00 0.00
1:53 pm 13:53 Cloudy with Haze 37 2.8 32 0 82 82 WSW 7 11 30.20 1023 6 10 0.00 0.00
2:53 pm 14:53 Cloudy 37 2.8 32 0 82 82 WSW 5 7 30.20 1023 7 11 0.00 0.00
3:23 pm 15:23 Cloudy 37 2.8 32 0 82 82 SW 3 6 30.21 1023 7 11 0.00 0.00
3:53 pm 15:53 Cloudy 37 2.8 31 -0.6 79 79 WSW 5 7 30.20 1023 8 13 0.00 0.00
4:53 pm 16:53 Cloudy with Light Rain 36 2.2 32 0 86 86 WSW 5 7 30.22 1023 6 10 0.00 0.03
5:23 pm 17:23 Cloudy with Light Rain/Snow 35 1.7 32 0 89 89 WSW 6 9 30.24 1024 4 6 0.00 0.03
5:53 pm 17:53 Cloudy with Light Rain/Snow 35 1.7 32 0 89 89 W 5 7 30.23 1024 4 6 0.00 0.03
6:53 pm 18:53 Cloudy with Light Snow 34 1.1 32 0 92 92 W 6 9 30.24 1024 4 6 0.01 0.25
7:06 pm 19:06 Cloudy with Light Snow 34 1.1 32 0 92 92 W 6 9 30.24 1024 3 5 0.00 0.03
7:27 pm 19:27 Cloudy with Light Snow 34 1.1 31 -0.6 89 89 W 5 7 30.24 1024 3 5 0.01 0.25
7:40 pm 19:40 Cloudy with Light Snow 34 1.1 32 0 92 92 W 5 7 30.24 1024 3 5 0.01 0.25
7:53 pm 19:53 Cloudy with Light Snow 34 1.1 32 0 92 92 W 5 7 30.24 1024 3 5 0.01 0.25
8:17 pm 20:17 Cloudy with Light Snow 34 1.1 31 -0.6 89 89 W 6 9 30.24 1024 3 5 0.00 0.03
8:44 pm 20:44 Cloudy with Light Snow 34 1 32 0 93 93 W 3 6 30.24 1024 3 4 0.00 0.00
8:53 pm 20:53 Cloudy with Light Snow 34 1.1 32 0 92 92 Calm 30.25 1024 3 5 0.01 0.25
9:00 pm 21:00 Mostly Cloudy with Light Snow 34 1 32 0 93 93 WSW 3 6 30.24 1024 3 4 0.00 0.00
9:16 pm 21:16 Cloudy with Light Snow 34 1 32 0 93 93 WSW 3 6 30.24 1024 3 5 0.00 0.00
9:24 pm 21:24 Cloudy with Light Snow 34 1 32 0 93 93 WSW 3 6 30.27 1025 3 5 0.00 0.00
9:34 pm 21:34 Cloudy with Light Snow 34 1 32 0 93 93 Calm 30.27 1025 3 4 0.00 0.00
9:53 pm 21:53 Cloudy with Light Snow 34 1.1 32 0 92 92 W 3 6 30.25 1024 3 5 0.00 0.03
10:53 pm 22:53 Cloudy with Light Snow 34 1.1 31 -0.6 89 89 WSW 5 7 30.25 1025 4 6 0.00 0.03
11:18 pm 23:18 Cloudy with Light Snow 34 1 32 0 93 93 WSW 5 7 30.27 1025 4 6 0.00 0.00
11:53 pm 23:53 Cloudy with Light Snow 34 1.1 31 -0.6 89 89 WSW 5 7 30.26 1025 3 5 0.01 0.25

Powered by AerisWeather